Date String (YYYY-MM-DD hh:mm:ss) UTC,Instrument flags,Ambient pressure (hPa),Sample flow (lpm),Bypass flow (lpm),Sample temperature (°C),Ambient temperature (°C),ASC tube jacket temperature (°C),LED temperature (°C),Box temperature (°C),Sample RH (%),Span deviation,Mass concentration (μg/m³),Mass concentration (μg/m³),Mass concentration (μg/m³)
DateTimeUTC,F1_M11,P_M11,Q1_M11,Q2_M11,T1_M11,T2_M11,T3_M11,T4_M11,T5_M11,U1_M11,ZSPAN_M11,X2_M11,X0_M11,X1_M11
2022-08-07 22:00:00,,0830.6,5.01,0.00,30.2,27.8,00.0,38.8,31.6,33.1,0000.0,0006.82,0014.99,0005.86
2022-08-07 22:01:00,,0830.5,4.99,0.00,30.2,28.0,00.0,38.8,31.7,33.3,0000.0,0006.77,0015.27,0005.82
2022-08-07 22:02:00,,0830.5,4.99,0.00,30.2,28.2,00.0,38.8,31.7,33.6,0000.0,0006.71,0014.11,0005.78
2022-08-07 22:03:00,,0830.5,5.00,0.00,30.2,28.4,00.0,38.8,31.8,33.7,0000.0,0006.65,0013.22,0005.75
2022-08-07 22:04:00,,0830.5,5.01,0.00,30.2,28.3,00.0,38.8,31.8,33.8,0000.0,0006.64,0012.69,0005.73
2022-08-07 22:05:00,,0830.4,4.99,0.00,30.2,27.8,00.0,38.8,31.6,33.8,0000.0,0006.66,0012.90,0005.73
2022-08-07 22:06:00,,0830.4,5.02,0.00,30.1,27.4,00.0,38.7,31.5,35.1,0000.0,0006.73,0013.44,0005.76
2022-08-07 22:07:00,,0830.4,4.99,0.00,30.2,27.3,00.0,38.7,31.6,35.3,0000.0,0006.82,0013.57,0005.79
2022-08-07 22:08:00,,0830.5,5.01,0.00,30.5,27.4,00.0,38.7,31.7,35.4,0000.0,0006.85,0013.88,0005.82
2022-08-07 22:09:00,,0830.6,4.99,0.00,30.8,27.6,00.0,38.7,31.9,34.7,0000.0,0006.86,0014.40,0005.81
2022-08-07 22:10:00,,0830.5,5.01,0.00,31.0,27.8,00.0,38.7,32.0,34.3,0000.0,0006.88,0014.57,0005.81
2022-08-07 22:11:00,,0830.5,5.00,0.00,31.1,28.0,00.0,38.8,32.0,33.5,0000.0,0006.89,0014.70,0005.82
2022-08-07 22:12:00,,0830.6,5.00,0.00,31.2,28.2,00.0,38.9,32.0,33.0,0000.0,0006.92,0014.30,0005.84
2022-08-07 22:13:00,,0830.6,5.01,0.00,31.3,28.3,00.0,39.0,32.0,32.6,0000.0,0006.96,0014.42,0005.84
2022-08-07 22:14:00,,0830.6,5.00,0.00,31.3,28.4,00.0,39.0,32.0,32.3,0000.0,0006.99,0014.54,0005.83
2022-08-07 22:15:00,,0830.6,5.01,0.00,31.3,27.9,00.0,39.1,31.9,32.4,0000.0,0007.02,0015.52,0005.82
2022-08-07 22:16:00,,0830.6,4.99,0.00,31.2,27.4,00.0,39.1,31.8,32.1,0000.0,0007.01,0015.95,0005.82
2022-08-07 22:17:00,,0830.6,5.00,0.00,31.1,27.3,00.0,39.1,31.7,32.5,0000.0,0006.95,0015.31,0005.79
2022-08-07 22:18:00,,0830.6,5.01,0.00,31.0,27.4,00.0,39.1,31.6,33.1,0000.0,0006.86,0015.32,0005.77
2022-08-07 22:19:00,,0830.6,4.99,0.00,30.9,27.5,00.0,39.1,31.7,33.9,0000.0,0006.88,0014.90,0005.77
2022-08-07 22:20:00,,0830.6,5.00,0.00,30.9,27.7,00.0,39.1,31.7,33.8,0000.0,0006.90,0014.27,0005.79
2022-08-07 22:21:00,,0830.6,5.01,0.00,30.8,28.0,00.0,39.2,31.8,33.7,0000.0,0006.89,0014.29,0005.82
2022-08-07 22:22:00,,0830.6,5.00,0.00,30.8,28.2,00.0,39.2,31.9,33.6,0000.0,0006.84,0014.58,0005.82
2022-08-07 22:23:00,,0830.6,5.01,0.00,30.8,28.3,00.0,39.2,31.9,33.6,0000.0,0006.77,0014.46,0005.81
2022-08-07 22:24:00,,0830.6,5.00,0.00,30.8,28.2,00.0,39.2,31.9,33.3,0000.0,0006.75,0014.47,0005.82
2022-08-07 22:25:00,,0830.6,5.00,0.00,30.8,27.6,00.0,39.1,31.8,33.2,0000.0,0006.76,0014.65,0005.84
2022-08-07 22:26:00,,0830.6,4.99,0.00,30.7,27.3,00.0,39.1,31.7,33.2,0000.0,0006.73,0013.99,0005.87
2022-08-07 22:27:00,,0830.6,5.00,0.00,30.6,27.3,00.0,39.1,31.7,33.7,0000.0,0006.76,0013.20,0005.89
2022-08-07 22:28:00,,0830.6,5.00,0.00,30.5,27.5,00.0,39.1,31.6,34.7,0000.0,0006.83,0013.30,0005.92
2022-08-07 22:29:00,,0830.6,4.99,0.00,30.5,27.7,00.0,39.0,31.7,34.6,0000.0,0006.91,0013.60,0005.95
2022-08-07 22:30:00,,0830.6,5.01,0.00,30.5,27.9,00.0,39.0,31.7,33.4,0000.0,0006.93,0014.50,0005.95
2022-08-07 22:31:00,,0830.6,5.00,0.00,30.5,28.0,00.0,39.0,31.8,33.1,0000.0,0006.92,0014.67,0005.94
2022-08-07 22:32:00,,0830.6,5.00,0.00,30.5,28.2,00.0,39.0,31.9,32.6,0000.0,0006.91,0015.53,0005.93
2022-08-07 22:33:00,,0830.6,5.00,0.00,30.6,28.4,00.0,39.0,31.9,32.3,0000.0,0006.87,0014.68,0005.91
2022-08-07 22:34:00,,0830.6,5.00,0.00,30.6,28.3,00.0,39.0,31.9,32.5,0000.0,0006.90,0014.65,0005.91
2022-08-07 22:35:00,,0830.6,5.01,0.00,30.5,27.7,00.0,39.0,31.7,33.0,0000.0,0006.91,0014.47,0005.91
2022-08-07 22:36:00,,0830.6,4.99,0.00,30.5,27.4,00.0,39.0,31.7,33.1,0000.0,0006.88,0014.24,0005.91
2022-08-07 22:37:00,,0830.6,5.01,0.00,30.4,27.4,00.0,38.9,31.6,33.8,0000.0,0006.87,0013.98,0005.89
2022-08-07 22:38:00,,0830.6,4.99,0.00,30.3,27.5,00.0,38.9,31.5,34.1,0000.0,0006.86,0013.82,0005.88
2022-08-07 22:39:00,,0830.5,4.99,0.00,30.2,27.7,00.0,38.9,31.5,33.9,0000.0,0006.88,0013.80,0005.87
2022-08-07 22:40:00,,0830.6,5.01,0.00,30.2,27.9,00.0,38.9,31.6,34.3,0000.0,0006.85,0013.87,0005.87
2022-08-07 22:41:00,,0830.5,4.99,0.00,30.2,28.1,00.0,38.9,31.7,34.9,0000.0,0006.82,0013.26,0005.86
2022-08-07 22:42:00,,0830.5,5.00,0.00,30.3,28.2,00.0,38.9,31.8,35.1,0000.0,0006.79,0013.18,0005.87
2022-08-07 22:43:00,,0830.6,5.00,0.00,30.6,28.4,00.0,38.9,32.0,34.0,0000.0,0006.78,0012.79,0005.86
2022-08-07 22:44:00,,0830.5,5.01,0.00,30.7,28.1,00.0,38.9,32.0,33.2,0000.0,0006.81,0013.86,0005.87
2022-08-07 22:45:00,,0830.5,5.00,0.00,30.8,27.6,00.0,38.9,31.8,33.2,0000.0,0006.80,0014.52,0005.87
2022-08-07 22:46:00,,0830.5,4.99,0.00,30.8,27.4,00.0,38.9,31.7,33.4,0000.0,0006.80,0014.51,0005.87
2022-08-07 22:47:00,,0830.6,5.01,0.00,30.7,27.4,00.0,38.9,31.7,33.9,0000.0,0006.86,0014.94,0005.89
2022-08-07 22:48:00,,0830.6,4.98,0.00,30.6,27.6,00.0,38.9,31.6,33.9,0000.0,0006.91,0015.13,0005.90
2022-08-07 22:49:00,,0830.6,5.01,0.00,30.6,27.8,00.0,38.9,31.6,33.3,0000.0,0006.95,0015.20,0005.91
2022-08-07 22:50:00,,0830.7,5.00,0.00,30.6,28.0,00.0,38.9,31.7,32.9,0000.0,0006.90,0015.10,0005.89
2022-08-07 22:51:00,,0830.7,5.00,0.00,30.6,28.2,00.0,39.0,31.8,34.2,0000.0,0006.89,0014.67,0005.90
2022-08-07 22:52:00,,0830.6,4.99,0.00,30.7,28.3,00.0,39.0,31.9,35.8,0000.0,0006.94,0014.64,0005.95
2022-08-07 22:53:00,,0830.6,5.00,0.00,30.9,28.4,00.0,39.0,32.1,35.5,0000.0,0007.03,0014.62,0006.00
2022-08-07 22:54:00,,0830.7,4.99,0.00,31.3,27.9,00.0,39.0,32.1,34.9,0000.4,0007.12,0014.19,0006.05
2022-08-07 22:55:00,,0830.8,5.01,0.00,31.5,27.4,00.0,39.0,32.1,34.3,0000.8,0007.18,0013.27,0006.09
2022-08-07 22:56:00,,0830.8,4.99,0.00,31.6,27.4,00.0,39.0,32.0,33.8,0000.8,0007.24,0013.19,0006.13
2022-08-07 22:57:00,,0830.8,5.01,0.00,31.5,27.4,00.0,39.1,31.9,33.7,0000.9,0007.30,0013.54,0006.16
2022-08-07 22:58:00,,0830.9,5.00,0.00,31.5,27.6,00.0,39.1,31.9,33.7,0000.6,0007.26,0013.52,0006.18
2022-08-07 22:59:00,,0831.0,5.00,0.00,31.5,27.8,00.0,39.2,31.9,31.4,0000.1,0007.18,0013.17,0006.13
